Adelanto, California, United States (92301)
Lat: 34.58N, Lon: 117.41W
Wx Zone: CAZ060
Local Info
Past Weather Observations for Saturday, April 19, 2014

NOTE: This archive is for the closest National Weather Service station to Adelanto. Information may differ from the station used for current weather conditions.

Time Weather Temperature Dewpoint Humidity Pressure Winds Precip Visibility
23:55
Clear
61°F / 16°C 39°F / 4°C 45% 30.09 in
(1019 mb)
SW 5.8 mph
(SW 9 kph)
- 10SM
23:35
Clear
59°F / 15°C 37°F / 3°C 45% 30.09 in
(1019 mb)
SW 5.8 mph
(SW 9 kph)
- 7SM
23:15
Clear
61°F / 16°C 36°F / 2°C 39% 30.09 in
(1019 mb)
S 5.8 mph
(S 9 kph)
- 10SM
22:55
Clear
61°F / 16°C 36°F / 2°C 39% 30.09 in
(1019 mb)
S 4.6 mph
(S 7 kph)
- 10SM
22:35
Clear
63°F / 17°C 36°F / 2°C 37% 30.09 in
(1019 mb)
S 6.9 mph
(S 11 kph)
- 10SM
22:15
Clear
63°F / 17°C 39°F / 4°C 42% 30.09 in
(1019 mb)
S 4.6 mph
(S 7 kph)
- 10SM
21:55
Clear
64°F / 18°C 43°F / 6°C 46% 30.06 in
(1018 mb)
S 5.8 mph
(S 9 kph)
- 10SM
21:35
Clear
64°F / 18°C 43°F / 6°C 46% 30.06 in
(1018 mb)
SW 6.9 mph
(SW 11 kph)
- 10SM
21:15
Clear
64°F / 18°C 45°F / 7°C 49% 30.06 in
(1018 mb)
SW 8.1 mph
(SW 13 kph)
- 10SM
20:55
Clear
66°F / 19°C 45°F / 7°C 46% 30.06 in
(1018 mb)
SW 9.2 mph
(SW 15 kph)
- 10SM
20:35
Clear
66°F / 19°C 45°F / 7°C 46% 30.06 in
(1018 mb)
SSW 11.5 mph
(SSW 19 kph)
- 10SM
20:15
Clear
66°F / 19°C 45°F / 7°C 46% 30.04 in
(1017 mb)
SSW 13.8 mph
(SSW 22 kph)
- 10SM
19:55
Clear
68°F / 20°C 45°F / 7°C 43% 30.04 in
(1017 mb)
SSW 13.8 mph
(SSW 22 kph)
- 10SM
19:35
Clear
68°F / 20°C 43°F / 6°C 40% 30.04 in
(1017 mb)
SSW 17.3 mph
(SSW 28 kph)
- 10SM
19:15
Clear
70°F / 21°C 43°F / 6°C 38% 30.01 in
(1016 mb)
W 18.4 mph
(W 30 kph)
- 10SM
18:55
Clear
70°F / 21°C 41°F / 5°C 35% 30.01 in
(1016 mb)
W 17.3 mph
(W 28 kph)
- 10SM
18:35
Clear
72°F / 22°C 43°F / 6°C 36% 30.01 in
(1016 mb)
W 19.6 mph
(W 32 kph)
- 10SM
18:15
Clear
75°F / 24°C 37°F / 3°C 25% 30.01 in
(1016 mb)
W 16.1 mph
(W 26 kph)
- 10SM
17:55
Clear
75°F / 24°C 37°F / 3°C 25% 29.98 in
(1015 mb)
W 15 mph
(W 24 kph)
- 10SM
17:35
Clear
79°F / 26°C 37°F / 3°C 23% 29.98 in
(1015 mb)
WNW 15 mph
(WNW 24 kph)
- 10SM
17:15
Partly Cloudy
79°F / 26°C 39°F / 4°C 24% 29.98 in
(1015 mb)
W 18.4 mph
(W 30 kph)
- 10SM
16:55
Mostly Cloudy
81°F / 27°C 37°F / 3°C 21% 29.98 in
(1015 mb)
WNW 12.7 mph
(WNW 20 kph)
- 10SM
16:35
Partly Cloudy
81°F / 27°C 32°F / 0°C 17% 29.98 in
(1015 mb)
SSW 6.9 mph
(SSW 11 kph)
- 10SM
16:15
Mostly Cloudy
81°F / 27°C 30°F / -1°C 16% 29.98 in
(1015 mb)
W 9.2 mph
(W 15 kph)
- 10SM
15:55
Partly Cloudy
79°F / 26°C 32°F / 0°C 18% 29.98 in
(1015 mb)
Calm - 10SM
15:35
Partly Cloudy
82°F / 28°C 30°F / -1°C 15% 29.98 in
(1015 mb)
NW 10.4 mph
(NW 17 kph)
- 10SM
15:15
Partly Cloudy
81°F / 27°C 30°F / -1°C 16% 29.98 in
(1015 mb)
SSW 4.6 mph
(SSW 7 kph)
- 10SM
14:55
Partly Cloudy
81°F / 27°C 30°F / -1°C 16% 29.98 in
(1015 mb)
SW 8.1 mph
(SW 13 kph)
- 10SM
14:35
Partly Cloudy
81°F / 27°C 30°F / -1°C 16% 29.98 in
(1015 mb)
S 3.5 mph
(S 6 kph)
- 10SM
14:15
Partly Cloudy
79°F / 26°C 30°F / -1°C 17% 29.98 in
(1015 mb)
SSE 3.5 mph
(SSE 6 kph)
- 10SM
13:55
Partly Cloudy
79°F / 26°C 32°F / 0°C 18% 29.98 in
(1015 mb)
W 4.6 mph
(W 7 kph)
- 10SM
13:35
Partly Cloudy
79°F / 26°C 34°F / 1°C 20% 30.01 in
(1016 mb)
N 3.5 mph
(N 6 kph)
- 10SM
13:15
Partly Cloudy
79°F / 26°C 34°F / 1°C 20% 30.01 in
(1016 mb)
SW 3.5 mph
(SW 6 kph)
- 10SM
12:55
Partly Cloudy
79°F / 26°C 36°F / 2°C 21% 30.01 in
(1016 mb)
SSE 5.8 mph
(SSE 9 kph)
- 10SM
12:35
Partly Cloudy
79°F / 26°C 36°F / 2°C 21% 30.01 in
(1016 mb)
W 8.1 mph
(W 13 kph)
- 10SM
12:15
Partly Cloudy
77°F / 25°C 36°F / 2°C 22% 30.01 in
(1016 mb)
SSW 5.8 mph
(SSW 9 kph)
- 10SM
11:55
Partly Cloudy
77°F / 25°C 36°F / 2°C 22% 30.01 in
(1016 mb)
W 8.1 mph
(W 13 kph)
- 10SM
11:35
Partly Cloudy
75°F / 24°C 36°F / 2°C 24% 30.01 in
(1016 mb)
W 6.9 mph
(W 11 kph)
- 10SM
11:15
Partly Cloudy
75°F / 24°C 36°F / 2°C 24% 30.04 in
(1017 mb)
NW 6.9 mph
(NW 11 kph)
- 10SM
10:55
Partly Cloudy
73°F / 23°C 37°F / 3°C 27% 30.04 in
(1017 mb)
SSW 6.9 mph
(SSW 11 kph)
- 10SM
10:35
Partly Cloudy
73°F / 23°C 37°F / 3°C 27% 30.04 in
(1017 mb)
SSW 3.5 mph
(SSW 6 kph)
- 10SM
10:15
Partly Cloudy
72°F / 22°C 36°F / 2°C 27% 30.04 in
(1017 mb)
SSW 3.5 mph
(SSW 6 kph)
- 10SM
09:55
Partly Cloudy
72°F / 22°C 36°F / 2°C 27% 30.04 in
(1017 mb)
W 3.5 mph
(W 6 kph)
- 10SM
09:35
Partly Cloudy
70°F / 21°C 36°F / 2°C 29% 30.04 in
(1017 mb)
W 3.5 mph
(W 6 kph)
- 10SM
09:15
Clear
70°F / 21°C 37°F / 3°C 31% 30.04 in
(1017 mb)
SSW 3.5 mph
(SSW 6 kph)
- 10SM
08:55
Clear
68°F / 20°C 39°F / 4°C 35% 30.04 in
(1017 mb)
Calm - 10SM
08:35
Clear
66°F / 19°C 37°F / 3°C 35% 30.04 in
(1017 mb)
S 3.5 mph
(S 6 kph)
- 10SM
08:15
Clear
64°F / 18°C 37°F / 3°C 37% 30.01 in
(1016 mb)
Calm - 10SM
07:55
Clear
63°F / 17°C 37°F / 3°C 39% 30.01 in
(1016 mb)
Calm - 10SM
07:35
Clear
63°F / 17°C 41°F / 5°C 45% 30.01 in
(1016 mb)
SSE 3.5 mph
(SSE 6 kph)
- 10SM
07:15
Partly Cloudy
61°F / 16°C 43°F / 6°C 52% 30.01 in
(1016 mb)
SSE 3.5 mph
(SSE 6 kph)
- 10SM
06:55
Clear
57°F / 14°C 43°F / 6°C 59% 30.01 in
(1016 mb)
S 4.6 mph
(S 7 kph)
- 10SM
06:35
Clear
55°F / 13°C 43°F / 6°C 63% 30.01 in
(1016 mb)
S 6.9 mph
(S 11 kph)
- 10SM
06:15
Clear
54°F / 12°C 43°F / 6°C 67% 30.01 in
(1016 mb)
S 5.8 mph
(S 9 kph)
- 10SM
05:55
Clear
54°F / 12°C 43°F / 6°C 67% 29.98 in
(1015 mb)
S 5.8 mph
(S 9 kph)
- 10SM
05:35
Fair
52°F / 11°C 43°F / 6°C 72% 29.98 in
(1015 mb)
SSE 8.1 mph
(SSE 13 kph)
- 10SM
05:15
Fair
52°F / 11°C 43°F / 6°C 72% 29.98 in
(1015 mb)
SSE 6.9 mph
(SSE 11 kph)
- 10SM
04:55
Fair
52°F / 11°C 43°F / 6°C 72% 29.95 in
(1014 mb)
S 5.8 mph
(S 9 kph)
- 10SM
04:35
Fair
52°F / 11°C 43°F / 6°C 72% 29.95 in
(1014 mb)
SSE 6.9 mph
(SSE 11 kph)
- 10SM
04:15
Fair
52°F / 11°C 43°F / 6°C 72% 29.95 in
(1014 mb)
SSE 4.6 mph
(SSE 7 kph)
- 10SM
03:55
Fair
50°F / 10°C 43°F / 6°C 76% 29.95 in
(1014 mb)
S 5.8 mph
(S 9 kph)
- 10SM
03:35
Fair
50°F / 10°C 45°F / 7°C 82% 29.95 in
(1014 mb)
S 4.6 mph
(S 7 kph)
- 10SM
03:15
Fair
52°F / 11°C 45°F / 7°C 77% 29.95 in
(1014 mb)
Calm - 10SM
02:55
Fair
52°F / 11°C 45°F / 7°C 77% 29.95 in
(1014 mb)
SW 4.6 mph
(SW 7 kph)
- 10SM
02:35
Fair
52°F / 11°C 45°F / 7°C 77% 29.95 in
(1014 mb)
SW 5.8 mph
(SW 9 kph)
- 10SM
02:15
Fair
52°F / 11°C 45°F / 7°C 77% 29.95 in
(1014 mb)
Calm - 10SM
01:55
Fair
52°F / 11°C 45°F / 7°C 77% 29.95 in
(1014 mb)
SW 4.6 mph
(SW 7 kph)
- 10SM
01:35
Fair
54°F / 12°C 45°F / 7°C 72% 29.95 in
(1014 mb)
SSW 4.6 mph
(SSW 7 kph)
- 10SM
01:15
Fair
54°F / 12°C 45°F / 7°C 72% 29.95 in
(1014 mb)
S 3.5 mph
(S 6 kph)
- 10SM
00:55
Clear
54°F / 12°C 45°F / 7°C 72% 29.95 in
(1014 mb)
SW 3.5 mph
(SW 6 kph)
- 10SM
00:35
Clear
55°F / 13°C 45°F / 7°C 67% 29.95 in
(1014 mb)
SW 4.6 mph
(SW 7 kph)
- 10SM
00:15
Clear
55°F / 13°C 45°F / 7°C 67% 29.95 in
(1014 mb)
SW 4.6 mph
(SW 7 kph)
- 10SM
Time Weather Temperature Dewpoint Humidity Pressure Winds Precip Visibility


Weather for websites

WeatherForYou.com, LLC is not responsible for any damages or problems caused by this service. Current weather conditions are obtained from the closest station including government and personal stations which may have varying degrees of accuracy. Weather forecasts are derived from the NOAA NDFD. Like all things, this site belongs to Jesus Christ... He just trusts me to maintain it. If you have any questions or comments email webmaster@weatherforyou.com

Copyright © 2014, WeatherForYou.com LLC. All rights reserved.